OBJECT D, 68201

Orbit data source: Space-Track

You're viewing an Uncataloged Satellite

Recently launched and/or uncataloged satellites may have evolving metadata. Metadata may include but not limited to: Owner, Maufacturer, Bus, Motor, and Mission.

OBJECT D, 68201 is a Chinese satellite in SSO that was launched on Mon, 16 Mar 2026 UTC via a KUAIZHOU-11 launch vehicle from the Jiuquan Satellite Launch Center, China (JSC). Unknown objects in Earth's orbit typically refer to objects detected orbiting the Earth but have not yet been identified or cataloged. These objects could be anything from previously untracked satellites, spent rocket stages, debris from satellite collisions, or even natural meteoroids temporarily captured by Earth's gravity.

Loading next visibility...
Identifier
68201, 2026-052D
Orbit
SSO
Country
Flag of CNCN / PRC
Related business
None
Manufacturer
Unknown
Mission
Operational spacecraft
Bus & Motor
Unknown
Mass
Unknown
Launch date (UTC)
2026-03-16 (3 months ago)
Launch vehicle
KUAIZHOU-11
Launch site
Jiuquan Satellite Launch Center, China (JSC)
Object type
Unknown
Shape & HBR
Unknown shape, 0.5 m
Radar Cross Section
Medium (>0.1 m² and <1 m²)

Expand to show TLE details & history
Last TLE update: 16 hours ago

TLE from 16 hours ago
0 OBJECT D
1 68201U 26052D   26171.18319480  .00003922  00000-0  23563-3 0  9991
2 68201  97.5325 245.9805 0009897 303.0304  56.9975 15.11432806 14501
Epoch: 2026-06-20T04:23Z
TLE epoch observation values (Epoch: 2026-06-20T04:23:48.030Z)
Latitude
-0.00001°
Longitude
-88.3711°
Altitude
531.184 km
Speed
7.599 km/s
True Right ascension
16h 23m 55s
True Declination
0° 00' 00"
Sunlit
Object was in full shadow at epoch
Visualization orbit readout
Latitude
Unknown
Longitude
Unknown
Altitude
Unknown
Speed
Unknown
Apparent Right ascension
Unknown
Apparent Declination
Unknown
Sunlit
N/A
Visualization observer readout
Local Sidereal Time
07:24:24
Azimuth
Unknown
Elevation
Unknown
Doppler factor
Unknown
Orbital elements
Apogee altitude
535.648 km
Perigee altitude
521.976 km
Semi-major axis
6,906.949 km
Eccentricity
0.00099
Inclination
97.5325°
RAAN
245.9805°
Arg. of periapsis
303.0304°
True anomaly
57.09268°
Mean anomaly
56.9975°
Eccentric anomaly
57.04508°
Mean motion
3.78106 °/min
Orbital period
95.21 mins
BSTAR
0.00023563
Loading maneuver chart data...
Computing Atmospheric mass density...
Loading historical data...
Loading historical data...
Loading historical data...
Loading historical data...
Loading historical data...
Loading historical data...
Loading historical data...

Documentation

Showing up to 5 results
|